RH
23 21 19 13 65 86 81 70 60 53 56 55 49 42 34 32 40 44 46 64 70 63 70 78 99 100 100 90 42 52 53 52 53 52 52 50 48 48 47 49 52 54 52
34 28 22 19 16 81 80 76 63 51 49 48 43 39 35 27 30 34 55 74 74 74 76 76 96 92 100 93 44 54 54 54 56 53 53 52 51 49 50 51 52 53 54
44 39 30 17 13 47 75 65 49 48 47 41 34 35 32 32 36 46 50 64 81 83 85 89 92 92 100 98 77 52 54 56 56 55 54 53 51 50 51 52 55 62 71
36 23 17 14 12 18 77 73 61 49 40 31 19 12 16 24 38 50 44 56 75 90 96 100 99 98 88 100 89 60 64 57 58 57 56 53 53 54 52 59 72 80 82
76 67 52 54 53 48 39 61 62 32 27 23 21 22 27 32 36 49 46 71 77 89 95 98 99 98 100 99 99 77 61 59 59 57 55 55 58 59 59 73 88 92 88
76 77 76 74 61 55 46 40 36 23 22 16 27 34 32 36 46 72 84 76 87 99 90 99 100 100 100 98 97 67 56 62 60 58 68 64 67 68 89 83 96 94 90
79 79 81 75 71 74 55 27 21 18 12 20 32 60 66 62 82 99 98 100 94 97 100 98 99 100 100 99 98 96 87 65 59 69 72 73 83 91 94 99 95 98 100
93 74 90 89 100 100 97 89 66 55 42 48 70 82 94 100 99 99 100 100 100 100 99 96 99 100 100 100 100 98 93 73 75 84 80 98 98 99 99 100 100 98 97
99 98 99 99 99 100 100 98 98 94 91 96 99 100 100 99 100 100 100 99 100 100 100 100 98 100 100 100 100 99 98 88 89 97 100 100 98 100 99 100 100 99 100
98 98 97 97 99 98 100 99 100 100 100 99 100 100 98 100 100 99 98 97 98 98 99 99 98 99 99 99 100 100 100 100 100 100 100 100 99 99 99 100 100 100 100
91 92 84 89 92 85 82 85 94 95 96 98 100 100 100 100 100 99 96 99 94 87 98 95 99 98 99 99 98 99 98 97 99 100 100 100 100 100 100 99 99 99 100
70 65 62 58 54 53 51 46 42 44 46 58 69 84 99 100 100 97 90 92 85 92 92 94 100 100 100 98 100 100 100 100 100 100 100 97 100 100 99 99 98 100 100
52 47 42 42 41 38 37 37 38 38 39 40 42 40 43 52 60 62 62 64 65 65 69 70 71 73 90 100 99 100 99 100 100 100 100 98 99 97 98 100 100 100 100
33 24 15 10 9 8 8 8 8 9 11 13 16 21 26 31 34 35 35 36 36 37 37 40 44 50 60 67 75 78 81 90 96 93 100 100 100 98 89 100 100 100 100
13 11 10 9 9 9 9 9 9 9 8 8 7 6 6 6 5 5 5 6 6 8 10 15 21 31 40 44 49 60 74 79 81 82 86 98 88 88 100 94 92 89 92
12 12 12 13 13 13 13 13 12 12 11 11 11 10 10 10 10 10 9 9 9 9 8 8 8 7 6 6 6 12 31 49 55 73 85 84 87 94 85 92 100 100 100
13 14 14 16 16 16 15 14 12 11 10 9 8 7 6 5 5 4 4 4 5 5 6 7 8 8 9 9 8 7 7 6 9 35 61 72 87 90 89 94 93 96 97
14 15 17 18 17 16 14 12 11 10 8 6 4 3 3 2 2 2 2 2 2 2 2 2 2 2 6 8 9 9 9 9 8 7 7 26 60 66 92 95 95 96 89
14 16 19 19 17 15 14 12 12 10 6 3 3 3 3 3 2 3 3 3 3 3 3 3 3 3 3 5 9 10 11 10 9 8 7 7 9 48 70 98 97 98 88
12 14 19 21 18 17 15 14 12 7 3 3 3 3 3 3 3 4 4 4 4 5 6 7 8 7 6 6 6 10 15 14 13 9 9 9 14 13 33 76 95 100 97
12 14 18 24 21 19 16 13 9 4 3 3 3 3 4 4 4 4 4 5 6 8 10 12 14 14 14 14 12 11 26 19 26 18 12 9 24 29 46 74 79 75 100
14 14 19 26 22 19 16 12 4 3 3 3 4 4 4 5 5 6 6 7 10 14 15 16 26 40 46 50 52 49 47 44 49 28 25 33 33 43 48 96 87 83 92
16 14 21 27 22 17 13 6 3 3 4 4 4 4 5 4 4 5 7 8 12 14 16 25 42 51 66 70 75 79 82 76 74 68 65 56 52 58 48 96 100 100 100
18 16 26 25 20 16 10 4 3 4 4 4 4 4 4 4 5 6 8 11 14 20 32 45 60 67 68 75 77 77 91 91 88 91 96 89 65 68 53 73 99 99 100
20 17 28 24 19 14 5 4 4 4 4 4 5 5 4 5 6 7 10 13 20 34 47 68 76 77 78 86 90 90 91 95 91 99 100 100 100 93 71 78 92 99 100
19 22 28 23 19 9 4 4 4 5 5 5 5 5 5 6 6 7 10 16 20 37 63 84 85 81 90 90 92 91 98 91 88 86 94 99 100 98 90 100 59 98 98
Wind_Speed
37 38 38 39 47 42 40 38 37 37 32 31 34 34 36 38 40 40 40 42 40 38 56 54 52 44 50 48 41 43 42 35 32 32 29 28 26 25 24 23 22 23 23
35 36 39 29 43 43 39 37 37 41 38 37 37 40 41 44 44 42 42 42 44 47 44 59 48 56 49 46 48 45 42 38 35 34 32 31 30 26 25 24 24 24 27
24 28 31 32 28 45 38 35 32 34 40 40 40 46 50 53 47 41 43 45 49 54 56 55 60 62 46 47 54 41 45 40 38 37 35 34 33 27 27 29 27 28 26
11 16 20 21 20 36 42 40 38 36 39 39 40 45 49 50 44 41 43 48 51 45 45 53 49 52 61 51 48 48 46 43 41 40 38 36 33 32 33 31 30 29 27
6 7 10 14 19 30 41 47 47 45 40 46 47 41 38 38 42 40 47 42 32 34 38 51 47 49 54 44 39 39 46 45 43 42 38 37 37 37 37 34 32 30 24
3 7 13 19 20 23 30 39 44 43 43 41 36 31 33 35 41 30 29 27 26 25 30 35 40 37 36 41 41 42 46 43 42 41 41 41 43 44 37 39 33 35 32
3 5 8 13 15 17 26 28 31 33 33 34 32 29 29 31 26 29 22 29 26 32 36 37 39 38 32 36 41 38 40 43 42 42 43 48 46 42 48 40 45 35 29
1 7 8 10 13 9 19 17 15 22 28 30 26 23 15 15 25 18 13 27 25 28 36 41 43 31 30 38 41 40 41 45 47 48 55 48 48 47 50 47 47 45 43
3 4 4 7 10 13 22 14 15 19 15 14 13 8 5 9 18 19 21 15 13 20 29 27 30 35 37 36 35 38 46 54 59 52 46 48 56 54 52 44 50 54 45
16 20 25 26 28 23 26 17 23 28 20 15 11 21 11 7 2 4 14 28 28 19 18 30 23 26 30 37 33 35 40 42 43 43 47 49 52 62 61 51 61 58 50
24 25 25 25 26 26 25 24 22 23 15 5 4 11 11 14 15 9 7 11 10 15 16 18 27 29 33 33 38 38 41 48 53 60 54 56 51 53 58 64 54 50 51
18 18 18 18 18 17 18 18 16 13 9 7 4 3 2 6 10 11 9 9 13 15 20 20 23 28 31 33 35 42 47 49 52 47 51 52 45 46 61 59 53 50 57
14 15 14 13 13 13 13 12 10 9 9 7 5 5 5 7 11 15 17 19 21 23 25 28 30 33 35 41 38 35 43 37 45 49 48 46 43 45 48 49 52 41 39
12 13 12 12 11 10 11 10 9 8 8 9 11 12 15 16 18 20 22 25 26 28 30 33 35 37 40 43 45 47 48 50 51 51 47 43 42 46 43 43 39 40 41
10 11 12 11 11 12 12 12 11 11 13 14 15 17 19 21 23 25 28 31 34 37 39 41 43 46 47 48 50 50 52 54 54 55 55 55 53 53 46 42 41 42 45
10 12 13 13 13 12 12 12 13 14 14 14 16 18 21 24 26 28 30 34 37 40 43 46 49 51 53 55 57 58 60 59 59 58 58 57 55 54 55 55 51 51 49
13 14 15 15 14 14 14 14 14 16 17 18 20 23 25 27 30 32 35 38 41 44 48 51 54 56 57 57 56 57 60 64 64 64 61 57 55 54 52 53 54 51 49
12 15 16 17 17 17 17 17 18 20 22 23 25 26 28 28 28 30 32 34 37 40 44 47 51 56 59 63 63 60 56 54 56 57 59 60 58 55 52 51 51 52 51
16 18 19 19 19 19 20 21 22 23 25 27 29 30 31 31 32 33 35 38 41 43 45 46 48 52 55 66 60 53 49 49 48 48 50 52 55 54 51 49 49 45 51
19 20 21 21 20 20 21 23 25 26 29 31 32 32 32 34 35 36 38 39 42 43 42 43 43 47 51 56 62 53 45 42 39 43 44 46 48 50 50 49 47 46 50
21 21 23 23 23 24 25 27 29 30 31 31 31 32 33 36 38 40 41 43 45 43 41 41 38 37 40 43 45 50 41 39 37 35 38 39 46 45 46 44 46 46 46
22 22 23 26 26 25 26 27 28 29 30 30 30 30 31 35 37 38 38 39 40 40 40 40 40 40 40 40 39 40 40 35 35 33 33 35 41 41 43 42 44 42 43
21 21 24 25 26 25 26 28 29 29 28 29 30 31 35 38 40 42 43 42 42 44 44 46 47 43 38 37 35 33 35 34 30 31 31 33 38 38 41 42 40 44 40
23 23 24 25 25 25 27 29 29 29 30 32 35 37 40 41 40 41 42 41 41 42 43 45 42 41 40 37 34 31 30 31 29 29 32 34 36 38 37 42 38 44 39
25 25 26 26 26 26 29 30 30 31 31 33 36 38 39 39 40 38 37 36 37 41 44 41 41 44 44 38 33 29 22 24 25 26 24 26 31 34 35 40 40 37 44
26 26 26 25 25 27 29 30 30 31 32 34 35 37 37 37 38 40 33 31 34 36 37 33 36 39 38 37 32 26 21 19 18 25 28 24 23 25 32 34 45 28 38
Wind_Direction
249 250 253 241 224 226 224 223 229 240 245 247 251 257 264 267 261 262 268 261 265 259 245 243 240 243 244 228 213 221 229 227 233 238 240 246 249 250 251 254 258 264 269
248 242 245 253 230 224 229 231 232 237 247 254 259 261 266 268 269 264 260 272 265 256 253 243 244 241 240 226 217 222 225 228 232 239 243 246 249 248 251 254 256 260 269
241 242 243 247 240 220 223 225 226 229 242 256 262 265 264 266 267 273 263 270 263 260 255 248 244 244 251 259 220 218 227 228 233 239 244 248 252 253 253 252 254 257 262
263 245 243 240 236 219 220 229 232 239 247 252 254 258 259 264 268 277 267 274 269 261 244 235 238 241 246 241 220 216 225 229 233 238 243 250 254 253 253 252 254 254 260
264 219 212 196 200 210 224 232 234 245 245 248 252 262 264 268 274 274 273 271 259 252 239 233 241 248 243 221 215 224 228 229 234 239 245 250 254 255 253 251 248 254 256
196 193 196 210 219 227 234 236 241 242 246 248 254 259 265 265 280 269 257 257 257 241 229 232 242 229 224 222 212 223 230 232 236 240 247 253 254 253 255 253 246 257 252
203 202 213 212 223 234 240 243 241 240 241 243 254 253 264 266 289 256 244 255 245 232 229 237 247 235 218 222 220 221 230 235 238 243 245 248 248 249 254 255 258 253 258
238 233 191 205 203 207 248 236 221 223 231 238 248 250 255 267 250 264 233 236 227 212 223 233 229 222 226 235 239 224 227 231 236 241 245 245 247 252 256 254 269 255 266
256 179 108 191 219 98 99 82 161 167 173 161 184 169 194 273 239 243 247 271 244 246 250 249 246 247 240 244 244 242 233 232 234 243 248 250 252 256 260 256 256 269 266
96 85 71 58 74 73 83 85 109 166 162 181 211 223 212 222 300 306 266 259 252 246 242 241 248 254 255 249 247 251 247 244 242 244 247 256 253 255 253 264 260 258 268
57 56 50 43 46 57 61 56 59 67 94 114 86 189 232 244 227 273 283 238 184 224 252 241 246 259 253 248 250 260 259 255 262 257 256 256 263 261 255 258 258 261 261
54 45 42 39 37 35 39 44 51 67 80 91 83 101 173 209 229 257 259 248 249 252 252 254 252 261 254 254 264 263 273 272 264 255 259 265 264 268 258 257 266 268 261
45 39 32 24 20 20 17 17 11 6 5 353 349 331 301 265 264 271 273 271 268 264 263 265 265 261 259 255 257 255 256 260 262 257 261 264 266 270 265 262 257 252 261
28 22 17 13 10 9 5 348 342 345 330 312 310 307 295 290 284 281 279 276 275 273 273 273 270 268 265 264 263 262 261 258 256 255 254 256 261 259 265 258 251 252 256
11 6 5 5 8 2 356 347 341 334 333 329 317 306 299 293 288 286 286 285 284 283 281 277 275 274 272 270 268 266 265 264 262 261 261 260 258 257 258 253 254 254 256
354 358 1 6 0 348 341 339 338 333 324 314 311 310 305 298 293 291 287 282 278 277 276 276 275 273 272 271 271 270 267 265 263 262 261 261 260 258 254 261 256 253 253
351 350 349 348 340 336 338 336 329 327 324 322 316 307 300 295 292 289 285 282 281 279 278 279 280 278 277 278 278 275 271 268 266 263 261 259 259 259 259 257 255 254 251
336 338 339 336 337 336 333 330 328 329 326 321 314 310 306 303 298 294 291 290 286 284 282 281 278 277 278 280 279 280 278 273 269 266 264 260 258 256 256 255 254 252 249
330 332 331 328 327 328 330 327 325 324 322 320 319 319 319 317 315 314 313 311 308 305 301 295 285 278 271 272 283 287 283 278 273 266 262 261 260 257 253 255 257 248 249
316 317 319 319 318 322 322 322 324 324 324 325 324 325 324 322 322 321 319 316 313 310 303 298 293 287 282 278 279 290 291 286 275 268 262 256 254 252 251 251 252 253 252
302 304 310 316 318 323 324 324 325 324 324 325 325 325 325 326 326 326 325 324 322 317 315 311 308 301 296 292 289 289 294 290 283 269 259 254 252 248 244 240 247 249 254
294 300 311 315 316 319 319 315 316 321 323 324 326 328 328 326 328 329 329 327 322 321 323 321 318 316 309 303 297 292 293 285 280 272 259 253 248 246 239 235 237 242 247
295 298 305 309 308 309 309 315 321 321 322 324 326 332 336 336 336 337 337 334 330 329 329 324 323 321 318 314 307 298 289 284 275 266 258 252 247 247 237 230 235 232 237
293 294 298 297 300 305 309 315 318 324 330 335 338 338 339 339 340 340 336 333 330 328 327 323 323 321 322 319 312 303 289 280 274 260 253 255 246 245 236 227 233 228 230
288 289 297 300 303 307 312 317 323 329 334 338 339 338 339 338 338 337 333 331 330 329 328 325 325 326 326 326 321 316 302 283 267 254 251 251 260 248 232 227 233 222 224
277 283 291 297 303 311 316 320 324 330 336 338 336 337 336 336 335 334 333 330 329 329 327 323 323 327 326 325 322 321 307 286 250 235 241 244 260 253 234 231 224 242 227